VCV3775 SKBO-SVMI

Flight info

Callsign VCV3775
Flight time 1h 32m
Altitude 39000
Route DANSA4R AKROB DCT KIKAS UP533 PBL ALDAK1
Aircraft A346/H-SDE2E3FGHIJ3J4J5M1RWXY/LB1D1

Departure

Time 2026-05-08 03:16
Airport El Dorado International Airport (SKBO)

Arrival

Time 2026-05-08 04:48
Airport Maiquetía Simón Bolívar International Airport (SVMI)
Time Latitude Longitude Altitude Speed Heading
2026-05-08 02:56 4.70033 -74.14172 8381 ft 0 kts 217°
2026-05-08 02:57 4.70050 -74.14158 8379 ft 4 kts 217°
2026-05-08 02:58 4.70072 -74.14142 8379 ft 4 kts 217°
2026-05-08 02:58 4.70089 -74.14127 8380 ft 4 kts 236°
2026-05-08 02:58 4.70094 -74.14116 8377 ft 4 kts 281°
2026-05-08 02:58 4.70087 -74.14105 8379 ft 4 kts 319°
2026-05-08 02:59 4.70066 -74.14088 8378 ft 4 kts 315°
2026-05-08 02:59 4.70057 -74.14078 8378 ft 0 kts 307°
2026-05-08 03:02 4.70060 -74.14082 8381 ft 1 kts 307°
2026-05-08 03:02 4.70069 -74.14093 8358 ft 3 kts 307°
2026-05-08 03:03 4.70082 -74.14111 8379 ft 4 kts 307°
2026-05-08 03:03 4.70100 -74.14134 8378 ft 4 kts 307°
2026-05-08 03:03 4.70120 -74.14160 8379 ft 5 kts 307°
2026-05-08 03:03 4.70141 -74.14188 8379 ft 5 kts 307°
2026-05-08 03:04 4.70162 -74.14215 8379 ft 5 kts 315°
2026-05-08 03:04 4.70189 -74.14221 8379 ft 5 kts
2026-05-08 03:04 4.70232 -74.14213 8380 ft 9 kts 358°
2026-05-08 03:04 4.70290 -74.14267 8380 ft 16 kts 308°
2026-05-08 03:05 4.70361 -74.14359 8379 ft 17 kts 308°
2026-05-08 03:05 4.70398 -74.14431 8379 ft 3 kts 250°
2026-05-08 03:05 4.70372 -74.14452 8381 ft 6 kts 214°
2026-05-08 03:05 4.70338 -74.14477 8379 ft 7 kts 217°
2026-05-08 03:06 4.70297 -74.14508 8379 ft 8 kts 217°
2026-05-08 03:06 4.70235 -74.14554 8379 ft 15 kts 217°
2026-05-08 03:06 4.70141 -74.14625 8379 ft 17 kts 217°
2026-05-08 03:06 4.70042 -74.14700 8381 ft 18 kts 217°
2026-05-08 03:07 4.69939 -74.14779 8380 ft 19 kts 217°
2026-05-08 03:07 4.69834 -74.14859 8379 ft 19 kts 218°
2026-05-08 03:07 4.69843 -74.14957 8378 ft 16 kts 310°
2026-05-08 03:07 4.69915 -74.15044 8381 ft 16 kts 309°
2026-05-08 03:08 4.69981 -74.15140 8379 ft 17 kts 307°
2026-05-08 03:08 4.70053 -74.15236 8379 ft 18 kts 307°
2026-05-08 03:08 4.70128 -74.15335 8377 ft 18 kts 307°
2026-05-08 03:08 4.70206 -74.15439 8379 ft 19 kts 307°
2026-05-08 03:09 4.70286 -74.15547 8379 ft 19 kts 307°
2026-05-08 03:09 4.70368 -74.15656 8379 ft 20 kts 307°
2026-05-08 03:09 4.70451 -74.15766 8379 ft 20 kts 307°
2026-05-08 03:09 4.70536 -74.15879 8378 ft 20 kts 307°
2026-05-08 03:10 4.70622 -74.15992 8380 ft 20 kts 307°
2026-05-08 03:10 4.70708 -74.16104 8379 ft 20 kts 307°
2026-05-08 03:10 4.70795 -74.16217 8379 ft 21 kts 307°
2026-05-08 03:10 4.70883 -74.16333 8380 ft 21 kts 307°
2026-05-08 03:11 4.70972 -74.16449 8380 ft 21 kts 307°
2026-05-08 03:11 4.71062 -74.16566 8379 ft 21 kts 307°
2026-05-08 03:11 4.71152 -74.16684 8379 ft 21 kts 307°
2026-05-08 03:11 4.71183 -74.16726 8381 ft 0 kts 307°
2026-05-08 03:12 4.71185 -74.16729 8380 ft 1 kts 307°
2026-05-08 03:12 4.71192 -74.16738 8379 ft 2 kts 306°
2026-05-08 03:12 4.71200 -74.16752 8379 ft 4 kts 297°
2026-05-08 03:12 4.71202 -74.16777 8379 ft 5 kts 254°
2026-05-08 03:13 4.71181 -74.16808 8379 ft 6 kts 218°
2026-05-08 03:13 4.71166 -74.16820 8378 ft 0 kts 218°
2026-05-08 03:13 4.71165 -74.16821 8378 ft 0 kts 218°
2026-05-08 03:13 4.71147 -74.16835 8379 ft 7 kts 218°
2026-05-08 03:14 4.71087 -74.16882 8378 ft 14 kts 216°
2026-05-08 03:14 4.71035 -74.16875 8379 ft 2 kts 142°
2026-05-08 03:14 4.71020 -74.16863 8379 ft 3 kts 134°
2026-05-08 03:14 4.70897 -74.16706 8379 ft 59 kts 127°
2026-05-08 03:15 4.70524 -74.16214 8380 ft 116 kts 127°
2026-05-08 03:15 4.69936 -74.15424 8381 ft 164 kts 128°
2026-05-08 03:15 4.69144 -74.14388 8404 ft 199 kts 127°
2026-05-08 03:15 4.68298 -74.13284 8947 ft 199 kts 127°
2026-05-08 03:16 4.67445 -74.12187 9621 ft 199 kts 128°
2026-05-08 03:16 4.66553 -74.11129 10253 ft 198 kts 135°
2026-05-08 03:16 4.65417 -74.10330 10561 ft 206 kts 159°
2026-05-08 03:16 4.63989 -74.10201 10796 ft 215 kts 191°
2026-05-08 03:17 4.62634 -74.10884 11099 ft 226 kts 222°
2026-05-08 03:17 4.61756 -74.12201 11458 ft 233 kts 250°
2026-05-08 03:17 4.61536 -74.13815 11885 ft 236 kts 272°
2026-05-08 03:17 4.61668 -74.15484 12198 ft 246 kts 275°
2026-05-08 03:18 4.61797 -74.17248 12456 ft 260 kts 272°
2026-05-08 03:18 4.61760 -74.19090 12858 ft 267 kts 265°
2026-05-08 03:18 4.61563 -74.20945 13422 ft 267 kts 262°
2026-05-08 03:18 4.61247 -74.22803 13845 ft 275 kts 258°
2026-05-08 03:19 4.60855 -74.24737 14095 ft 291 kts 258°
2026-05-08 03:19 4.60287 -74.26745 14336 ft 307 kts 244°
2026-05-08 03:19 4.59126 -74.28600 14607 ft 321 kts 227°
2026-05-08 03:19 4.57569 -74.30240 15088 ft 327 kts 224°
2026-05-08 03:20 4.55948 -74.31858 15718 ft 330 kts 224°
2026-05-08 03:20 4.54868 -74.32941 16126 ft 332 kts 224°
2026-05-08 03:20 4.53239 -74.34594 16743 ft 334 kts 223°
2026-05-08 03:20 4.50865 -74.36686 17229 ft 348 kts 216°
2026-05-08 03:21 4.49538 -74.37617 17403 ft 357 kts 211°
2026-05-08 03:21 4.47335 -74.38862 17643 ft 370 kts 204°
2026-05-08 03:21 4.44144 -74.40269 17963 ft 388 kts 203°
2026-05-08 03:21 4.42487 -74.41084 18133 ft 397 kts 207°
2026-05-08 03:22 4.39999 -74.42393 18358 ft 410 kts 201°
2026-05-08 03:22 4.37191 -74.42958 18531 ft 418 kts 178°
2026-05-08 03:22 4.34337 -74.42374 18740 ft 425 kts 155°
2026-05-08 03:22 4.31905 -74.40702 19085 ft 427 kts 133°
2026-05-08 03:23 4.30248 -74.38247 19571 ft 427 kts 114°
2026-05-08 03:23 4.29474 -74.35372 20092 ft 429 kts 95°
2026-05-08 03:23 4.29688 -74.32429 20501 ft 433 kts 76°
2026-05-08 03:23 4.30918 -74.29675 20921 ft 437 kts 56°
2026-05-08 03:24 4.33038 -74.27492 21367 ft 440 kts 39°
2026-05-08 03:24 4.35469 -74.25602 21830 ft 443 kts 39°
2026-05-08 03:24 4.37890 -74.23671 22237 ft 447 kts 39°
2026-05-08 03:24 4.40324 -74.21713 22657 ft 450 kts 39°
2026-05-08 03:25 4.42777 -74.19728 23136 ft 454 kts 39°
2026-05-08 03:25 4.45246 -74.17734 23529 ft 457 kts 39°
2026-05-08 03:25 4.47732 -74.15728 23914 ft 460 kts 39°
2026-05-08 03:25 4.50236 -74.13707 24239 ft 463 kts 39°
2026-05-08 03:26 4.52752 -74.11676 24572 ft 466 kts 39°
2026-05-08 03:26 4.55285 -74.09631 24912 ft 468 kts 39°
2026-05-08 03:26 4.57833 -74.07573 25248 ft 471 kts 39°
2026-05-08 03:26 4.60396 -74.05503 25573 ft 474 kts 39°
2026-05-08 03:27 4.62970 -74.03423 25901 ft 476 kts 39°
2026-05-08 03:27 4.65558 -74.01331 26231 ft 479 kts 39°
2026-05-08 03:27 4.68156 -73.99231 26552 ft 482 kts 39°
2026-05-08 03:27 4.70776 -73.97112 26879 ft 484 kts 39°
2026-05-08 03:28 4.73404 -73.94984 27196 ft 487 kts 39°
2026-05-08 03:28 4.76015 -73.92871 27512 ft 490 kts 39°
2026-05-08 03:28 4.78672 -73.90720 27836 ft 492 kts 39°
2026-05-08 03:28 4.81338 -73.88563 28198 ft 493 kts 39°
2026-05-08 03:29 4.84020 -73.86393 28509 ft 496 kts 39°
2026-05-08 03:29 4.86715 -73.84213 28883 ft 497 kts 39°
2026-05-08 03:29 4.89407 -73.82035 29372 ft 496 kts 39°
2026-05-08 03:29 4.92083 -73.79870 29865 ft 494 kts 39°
2026-05-08 03:30 4.97432 -73.75541 30709 ft 493 kts 39°
2026-05-08 03:30 5.02777 -73.71213 31391 ft 495 kts 39°
2026-05-08 03:31 5.08134 -73.66876 32137 ft 494 kts 38°
2026-05-08 03:31 5.13453 -73.62566 32878 ft 494 kts 38°
2026-05-08 03:32 5.16121 -73.60403 33296 ft 492 kts 38°
2026-05-08 03:32 5.18779 -73.58251 33752 ft 490 kts 38°
2026-05-08 03:32 5.21429 -73.56106 34194 ft 488 kts 38°
2026-05-08 03:32 5.24073 -73.53965 34570 ft 487 kts 38°
2026-05-08 03:33 5.26711 -73.51830 34910 ft 486 kts 38°
2026-05-08 03:33 5.29338 -73.49702 35263 ft 485 kts 38°
2026-05-08 03:33 5.31964 -73.47574 35621 ft 484 kts 38°
2026-05-08 03:33 5.34579 -73.45455 35987 ft 482 kts 38°
2026-05-08 03:34 5.37183 -73.43340 36351 ft 481 kts 38°
2026-05-08 03:34 5.39727 -73.41155 36702 ft 480 kts 40°
2026-05-08 03:34 5.42234 -73.38937 37048 ft 479 kts 40°
2026-05-08 03:34 5.44729 -73.36721 37403 ft 478 kts 40°
2026-05-08 03:35 5.47218 -73.34508 37748 ft 477 kts 40°
2026-05-08 03:35 5.49674 -73.32324 38013 ft 478 kts 40°
2026-05-08 03:35 5.52174 -73.30100 38230 ft 480 kts 40°
2026-05-08 03:35 5.54684 -73.27866 38421 ft 482 kts 40°
2026-05-08 03:36 5.57200 -73.25628 38594 ft 484 kts 40°
2026-05-08 03:36 5.59726 -73.23380 38783 ft 486 kts 40°
2026-05-08 03:36 5.62257 -73.21128 39001 ft 486 kts 40°
2026-05-08 03:36 5.64802 -73.18864 39186 ft 487 kts 40°
2026-05-08 03:37 5.67276 -73.16663 39243 ft 488 kts 40°
2026-05-08 03:37 5.72367 -73.12132 39232 ft 492 kts 40°
2026-05-08 03:38 5.77542 -73.07527 39236 ft 500 kts 40°
2026-05-08 03:38 5.82752 -73.02889 39214 ft 501 kts 40°
2026-05-08 03:39 5.87957 -72.98258 39208 ft 499 kts 40°
2026-05-08 03:39 5.93152 -72.93626 39209 ft 499 kts 40°
2026-05-08 03:40 5.98343 -72.88998 39194 ft 499 kts 40°
2026-05-08 03:40 6.03539 -72.84366 39193 ft 499 kts 40°
2026-05-08 03:41 6.08734 -72.79733 39194 ft 499 kts 40°
2026-05-08 03:41 6.13934 -72.75096 39168 ft 499 kts 40°
2026-05-08 03:42 6.19106 -72.70484 39173 ft 500 kts 41°
2026-05-08 03:42 6.24369 -72.65790 39180 ft 503 kts 41°
2026-05-08 03:43 6.29571 -72.61145 39164 ft 503 kts 41°
2026-05-08 03:43 6.34808 -72.56466 39166 ft 503 kts 41°
2026-05-08 03:44 6.38550 -72.53125 39168 ft 503 kts 41°
2026-05-08 03:44 6.40804 -72.51112 39171 ft 503 kts 41°
2026-05-08 03:45 6.46057 -72.46419 39170 ft 503 kts 41°
2026-05-08 03:45 6.51332 -72.41705 39171 ft 503 kts 41°
2026-05-08 03:46 6.56606 -72.36993 39165 ft 503 kts 41°
2026-05-08 03:46 6.61905 -72.32254 39163 ft 503 kts 41°
2026-05-08 03:47 6.65903 -72.28676 39158 ft 503 kts 41°
2026-05-08 03:47 6.68255 -72.26571 39145 ft 503 kts 41°
2026-05-08 03:48 6.73483 -72.21888 39108 ft 503 kts 41°
2026-05-08 03:48 6.78681 -72.17236 39107 ft 503 kts 41°
2026-05-08 03:49 6.83921 -72.12547 39050 ft 503 kts 41°
2026-05-08 03:49 6.89153 -72.07862 39001 ft 503 kts 41°
2026-05-08 03:50 6.94386 -72.03175 38981 ft 503 kts 41°
2026-05-08 03:50 6.99608 -71.98493 38970 ft 503 kts 41°
2026-05-08 03:51 7.04564 -71.93525 39003 ft 503 kts 46°
2026-05-08 03:51 7.09308 -71.88373 38996 ft 504 kts 46°
2026-05-08 03:52 7.14074 -71.83182 38990 ft 504 kts 46°
2026-05-08 03:52 7.18844 -71.77997 38991 ft 504 kts 46°
2026-05-08 03:53 7.23632 -71.72789 38985 ft 505 kts 46°
2026-05-08 03:53 7.28414 -71.67593 38977 ft 506 kts 46°
2026-05-08 03:54 7.33208 -71.62384 38982 ft 506 kts 46°
2026-05-08 03:54 7.40911 -71.54006 38976 ft 506 kts 46°
2026-05-08 03:55 7.50426 -71.43649 38978 ft 506 kts 46°
2026-05-08 03:55 7.60006 -71.33214 38977 ft 507 kts 45°
2026-05-08 03:56 7.68733 -71.23707 38976 ft 507 kts 45°
2026-05-08 03:56 7.73526 -71.18482 38983 ft 507 kts 45°
2026-05-08 03:57 7.78317 -71.13256 38987 ft 507 kts 45°
2026-05-08 03:57 7.83106 -71.08031 38987 ft 507 kts 45°
2026-05-08 03:58 7.87891 -71.02808 38986 ft 507 kts 45°
2026-05-08 03:58 7.92665 -70.97603 38988 ft 502 kts 46°
2026-05-08 03:59 7.97398 -70.92432 38983 ft 500 kts 46°
2026-05-08 03:59 8.02124 -70.87265 38968 ft 500 kts 46°
2026-05-08 04:00 8.06849 -70.82098 38986 ft 501 kts 46°
2026-05-08 04:00 8.11580 -70.76925 38991 ft 501 kts 46°
2026-05-08 04:01 8.16310 -70.71752 38970 ft 501 kts 46°
2026-05-08 04:01 8.21041 -70.66575 38981 ft 501 kts 46°
2026-05-08 04:02 8.25764 -70.61407 38985 ft 498 kts 46°
2026-05-08 04:02 8.30452 -70.56272 38971 ft 496 kts 46°
2026-05-08 04:03 8.35095 -70.51185 38988 ft 495 kts 46°
2026-05-08 04:03 8.42107 -70.43499 38957 ft 495 kts 46°
2026-05-08 04:04 8.46778 -70.38378 38981 ft 495 kts 46°
2026-05-08 04:04 8.51454 -70.33248 38956 ft 495 kts 46°
2026-05-08 04:05 8.56123 -70.28125 38959 ft 495 kts 46°
2026-05-08 04:05 8.60783 -70.23008 38974 ft 493 kts 46°
2026-05-08 04:06 8.65376 -70.17853 38962 ft 493 kts 47°
2026-05-08 04:06 8.69918 -70.12655 38654 ft 491 kts 47°
2026-05-08 04:07 8.72175 -70.10073 38314 ft 489 kts 47°
2026-05-08 04:07 8.74434 -70.07492 37963 ft 490 kts 47°
2026-05-08 04:07 8.76698 -70.04907 37614 ft 491 kts 47°
2026-05-08 04:07 8.78963 -70.02322 37274 ft 491 kts 47°
2026-05-08 04:08 8.81204 -69.99765 36944 ft 492 kts 47°
2026-05-08 04:08 8.83478 -69.97169 36626 ft 493 kts 47°
2026-05-08 04:08 8.85758 -69.94567 36316 ft 494 kts 47°
2026-05-08 04:08 8.88038 -69.91966 35983 ft 495 kts 47°
2026-05-08 04:09 8.90322 -69.89359 35669 ft 495 kts 47°
2026-05-08 04:09 8.92605 -69.86749 35351 ft 495 kts 47°
2026-05-08 04:09 8.94893 -69.84137 35063 ft 496 kts 47°
2026-05-08 04:09 8.97192 -69.81513 34781 ft 498 kts 47°
2026-05-08 04:10 8.99490 -69.78887 34466 ft 499 kts 47°
2026-05-08 04:10 9.01797 -69.76250 34170 ft 500 kts 47°
2026-05-08 04:10 9.04111 -69.73606 33878 ft 501 kts 47°
2026-05-08 04:10 9.06427 -69.70957 33535 ft 502 kts 47°
2026-05-08 04:11 9.08744 -69.68305 33201 ft 503 kts 47°
2026-05-08 04:11 9.11065 -69.65650 32872 ft 504 kts 47°
2026-05-08 04:11 9.13384 -69.62995 32558 ft 502 kts 47°
2026-05-08 04:11 9.15696 -69.60349 32236 ft 500 kts 47°
2026-05-08 04:12 9.18001 -69.57711 31918 ft 500 kts 47°
2026-05-08 04:12 9.20307 -69.55071 31612 ft 501 kts 47°
2026-05-08 04:12 9.22620 -69.52421 31313 ft 502 kts 47°
2026-05-08 04:12 9.24152 -69.50666 31112 ft 502 kts 47°
2026-05-08 04:13 9.26466 -69.48015 30817 ft 502 kts 47°
2026-05-08 04:13 9.29534 -69.44500 30412 ft 503 kts 47°
2026-05-08 04:13 9.31104 -69.42701 30217 ft 504 kts 47°
2026-05-08 04:13 9.33426 -69.40039 29894 ft 505 kts 47°
2026-05-08 04:14 9.36509 -69.36506 29443 ft 506 kts 47°
2026-05-08 04:14 9.38086 -69.34699 29212 ft 506 kts 47°
2026-05-08 04:14 9.41168 -69.31163 28768 ft 504 kts 47°
2026-05-08 04:14 9.43485 -69.28505 28428 ft 502 kts 47°
2026-05-08 04:15 9.45046 -69.26713 28207 ft 502 kts 47°
2026-05-08 04:15 9.47358 -69.24060 27862 ft 502 kts 47°
2026-05-08 04:15 9.49672 -69.21403 27553 ft 502 kts 47°
2026-05-08 04:15 9.51960 -69.18778 27226 ft 502 kts 47°
2026-05-08 04:16 9.54268 -69.16127 26923 ft 501 kts 47°
2026-05-08 04:16 9.56567 -69.13486 26619 ft 496 kts 47°
2026-05-08 04:16 9.58837 -69.10876 26170 ft 488 kts 47°
2026-05-08 04:16 9.61063 -69.08318 25849 ft 478 kts 47°
2026-05-08 04:17 9.63242 -69.05814 25586 ft 468 kts 47°
2026-05-08 04:17 9.65371 -69.03366 25308 ft 458 kts 47°
2026-05-08 04:17 9.67457 -69.00969 25031 ft 449 kts 47°
2026-05-08 04:17 9.69515 -68.98606 24763 ft 447 kts 47°
2026-05-08 04:18 9.71568 -68.96247 24499 ft 445 kts 47°
2026-05-08 04:18 9.73614 -68.93898 24224 ft 443 kts 47°
2026-05-08 04:18 9.75645 -68.91563 23979 ft 440 kts 47°
2026-05-08 04:18 9.77671 -68.89234 23712 ft 438 kts 47°
2026-05-08 04:19 9.79683 -68.86921 23432 ft 436 kts 47°
2026-05-08 04:19 9.81688 -68.84615 23130 ft 435 kts 47°
2026-05-08 04:19 9.83689 -68.82313 22827 ft 434 kts 47°
2026-05-08 04:19 9.85684 -68.80018 22510 ft 432 kts 47°
2026-05-08 04:20 9.87668 -68.77736 22228 ft 429 kts 47°
2026-05-08 04:20 9.89634 -68.75473 21927 ft 425 kts 48°
2026-05-08 04:20 9.91589 -68.73224 21627 ft 423 kts 47°
2026-05-08 04:20 9.93501 -68.71022 21324 ft 420 kts 48°
2026-05-08 04:21 9.95430 -68.68801 21044 ft 418 kts 48°
2026-05-08 04:21 9.97347 -68.66594 20764 ft 416 kts 48°
2026-05-08 04:21 9.99254 -68.64397 20466 ft 413 kts 48°
2026-05-08 04:21 10.01145 -68.62216 20196 ft 411 kts 48°
2026-05-08 04:22 10.03035 -68.60038 19911 ft 409 kts 48°
2026-05-08 04:22 10.04910 -68.57881 19642 ft 406 kts 48°
2026-05-08 04:22 10.06783 -68.55729 19354 ft 404 kts 48°
2026-05-08 04:22 10.08642 -68.53594 19092 ft 402 kts 48°
2026-05-08 04:23 10.10490 -68.51469 18822 ft 401 kts 48°
2026-05-08 04:23 10.12333 -68.49350 18556 ft 398 kts 48°
2026-05-08 04:23 10.14148 -68.47263 18278 ft 391 kts 48°
2026-05-08 04:23 10.15941 -68.45201 17961 ft 388 kts 48°
2026-05-08 04:24 10.17727 -68.43147 17640 ft 386 kts 48°
2026-05-08 04:24 10.19499 -68.41108 17349 ft 384 kts 49°
2026-05-08 04:24 10.21257 -68.39084 17046 ft 381 kts 49°
2026-05-08 04:24 10.23007 -68.37070 16760 ft 379 kts 49°
2026-05-08 04:25 10.24746 -68.35069 16523 ft 377 kts 49°
2026-05-08 04:25 10.26477 -68.33076 16230 ft 374 kts 49°
2026-05-08 04:25 10.28181 -68.31113 15937 ft 366 kts 49°
2026-05-08 04:25 10.29837 -68.29206 15749 ft 355 kts 49°
2026-05-08 04:26 10.31447 -68.27351 15547 ft 345 kts 49°
2026-05-08 04:26 10.33014 -68.25544 15358 ft 335 kts 49°
2026-05-08 04:26 10.34515 -68.23816 15168 ft 325 kts 49°
2026-05-08 04:26 10.35989 -68.22117 14959 ft 315 kts 49°
2026-05-08 04:27 10.37415 -68.20472 14772 ft 305 kts 49°
2026-05-08 04:27 10.38796 -68.18880 14575 ft 296 kts 49°
2026-05-08 04:27 10.40142 -68.17329 14388 ft 287 kts 50°
2026-05-08 04:27 10.41453 -68.15817 14205 ft 285 kts 50°
2026-05-08 04:28 10.42768 -68.14298 14013 ft 284 kts 50°
2026-05-08 04:28 10.44072 -68.12794 13849 ft 282 kts 50°
2026-05-08 04:28 10.45369 -68.11297 13639 ft 281 kts 50°
2026-05-08 04:28 10.46626 -68.09788 13429 ft 276 kts 54°
2026-05-08 04:29 10.47675 -68.08188 13216 ft 268 kts 61°
2026-05-08 04:29 10.48496 -68.06520 13006 ft 260 kts 68°
2026-05-08 04:29 10.49101 -68.04808 12796 ft 253 kts 74°
2026-05-08 04:29 10.49536 -68.03091 12592 ft 247 kts 76°
2026-05-08 04:30 10.49930 -68.01436 12388 ft 243 kts 76°
2026-05-08 04:30 10.50325 -67.99763 12186 ft 243 kts 76°
2026-05-08 04:30 10.50726 -67.98066 11983 ft 243 kts 76°
2026-05-08 04:30 10.51122 -67.96393 11785 ft 243 kts 76°
2026-05-08 04:31 10.51512 -67.94750 11585 ft 240 kts 76°
2026-05-08 04:31 10.51896 -67.93130 11442 ft 229 kts 76°
2026-05-08 04:31 10.52260 -67.91595 11309 ft 219 kts 76°
2026-05-08 04:31 10.52613 -67.90102 11186 ft 213 kts 76°
2026-05-08 04:32 10.52953 -67.88667 11051 ft 206 kts 77°
2026-05-08 04:32 10.53288 -67.87253 10929 ft 205 kts 77°
2026-05-08 04:32 10.53630 -67.85807 10838 ft 216 kts 77°
2026-05-08 04:32 10.53986 -67.84300 10734 ft 221 kts 77°
2026-05-08 04:33 10.54346 -67.82777 10604 ft 221 kts 77°
2026-05-08 04:33 10.54703 -67.81272 10496 ft 220 kts 77°
2026-05-08 04:33 10.55053 -67.79790 10362 ft 212 kts 77°
2026-05-08 04:33 10.55396 -67.78338 10246 ft 211 kts 77°
2026-05-08 04:34 10.55740 -67.76886 10128 ft 213 kts 77°
2026-05-08 04:34 10.56094 -67.75385 10034 ft 221 kts 77°
2026-05-08 04:34 10.56454 -67.73857 9918 ft 223 kts 77°
2026-05-08 04:34 10.56815 -67.72329 9711 ft 220 kts 77°
2026-05-08 04:35 10.57171 -67.70822 9453 ft 218 kts 77°
2026-05-08 04:35 10.57525 -67.69323 9194 ft 217 kts 77°
2026-05-08 04:35 10.57863 -67.67817 8932 ft 217 kts 79°
2026-05-08 04:35 10.58102 -67.66303 8706 ft 216 kts 84°
2026-05-08 04:36 10.58230 -67.64782 8452 ft 215 kts 88°
2026-05-08 04:36 10.58288 -67.63263 8209 ft 214 kts 89°
2026-05-08 04:36 10.58341 -67.61746 7965 ft 214 kts 89°
2026-05-08 04:36 10.58393 -67.60233 7723 ft 213 kts 89°
2026-05-08 04:37 10.58444 -67.58727 7481 ft 213 kts 89°
2026-05-08 04:37 10.58496 -67.57223 7233 ft 212 kts 89°
2026-05-08 04:37 10.58548 -67.55727 7008 ft 211 kts 89°
2026-05-08 04:37 10.58599 -67.54232 6777 ft 211 kts 89°
2026-05-08 04:38 10.58647 -67.52743 6539 ft 209 kts 88°
2026-05-08 04:38 10.58699 -67.51242 6329 ft 220 kts 88°
2026-05-08 04:38 10.58754 -67.49678 6085 ft 222 kts 88°
2026-05-08 04:38 10.58808 -67.48108 5835 ft 222 kts 88°
2026-05-08 04:39 10.58862 -67.46540 5592 ft 221 kts 88°
2026-05-08 04:39 10.58916 -67.44984 5352 ft 219 kts 88°
2026-05-08 04:39 10.58970 -67.43433 5112 ft 219 kts 88°
2026-05-08 04:39 10.59022 -67.41883 4874 ft 219 kts 88°
2026-05-08 04:40 10.59075 -67.40341 4636 ft 218 kts 88°
2026-05-08 04:40 10.59127 -67.38806 4396 ft 216 kts 88°
2026-05-08 04:40 10.59179 -67.37275 4157 ft 215 kts 88°
2026-05-08 04:40 10.59231 -67.35753 4114 ft 216 kts 88°
2026-05-08 04:41 10.59283 -67.34231 4091 ft 214 kts 88°
2026-05-08 04:41 10.59335 -67.32719 4056 ft 213 kts 88°
2026-05-08 04:41 10.59385 -67.31210 4039 ft 214 kts 88°
2026-05-08 04:41 10.59437 -67.29696 4017 ft 214 kts 88°
2026-05-08 04:42 10.59481 -67.28184 4031 ft 214 kts 89°
2026-05-08 04:42 10.59500 -67.26689 4033 ft 213 kts 89°
2026-05-08 04:42 10.59522 -67.25180 4023 ft 213 kts 89°
2026-05-08 04:42 10.59593 -67.23691 4013 ft 203 kts 86°
2026-05-08 04:43 10.59679 -67.22291 3999 ft 197 kts 86°
2026-05-08 04:43 10.59753 -67.20902 3900 ft 196 kts 88°
2026-05-08 04:43 10.59810 -67.19526 3669 ft 191 kts 89°
2026-05-08 04:43 10.59855 -67.18208 3422 ft 180 kts 89°
2026-05-08 04:44 10.59893 -67.16981 3179 ft 168 kts 89°
2026-05-08 04:44 10.59927 -67.15800 2967 ft 166 kts 89°
2026-05-08 04:44 10.59961 -67.14633 2742 ft 165 kts 90°
2026-05-08 04:44 10.59994 -67.13464 2530 ft 166 kts 89°
2026-05-08 04:45 10.60029 -67.12293 2314 ft 165 kts 89°
2026-05-08 04:45 10.60065 -67.11133 2083 ft 161 kts 88°
2026-05-08 04:45 10.60100 -67.10017 1871 ft 157 kts 88°
2026-05-08 04:45 10.60118 -67.08914 1650 ft 155 kts 90°
2026-05-08 04:46 10.60109 -67.07817 1400 ft 155 kts 90°
2026-05-08 04:46 10.60144 -67.06711 1227 ft 160 kts 86°
2026-05-08 04:46 10.60242 -67.05567 1083 ft 164 kts 85°
2026-05-08 04:46 10.60316 -67.04415 852 ft 163 kts 89°
2026-05-08 04:47 10.60319 -67.03263 624 ft 162 kts 91°
2026-05-08 04:47 10.60342 -67.02121 423 ft 158 kts 88°
2026-05-08 04:47 10.60392 -67.01031 253 ft 149 kts 88°
2026-05-08 04:47 10.60420 -67.00182 235 ft 88 kts 88°
2026-05-08 04:48 10.60431 -66.99757 223 ft 32 kts 88°
2026-05-08 04:48 10.60434 -66.99636 219 ft 11 kts 88°
2026-05-08 04:48 10.60437 -66.99531 221 ft 20 kts 88°
2026-05-08 04:48 10.60442 -66.99354 208 ft 29 kts 88°
2026-05-08 04:49 10.60438 -66.99155 214 ft 24 kts 113°
2026-05-08 04:49 10.60295 -66.99133 195 ft 20 kts 231°
2026-05-08 04:49 10.60267 -66.99275 199 ft 21 kts 267°
2026-05-08 04:49 10.60260 -66.99440 207 ft 24 kts 267°
2026-05-08 04:50 10.60255 -66.99608 218 ft 16 kts 264°
2026-05-08 04:50 10.60237 -66.99644 218 ft 6 kts 230°
2026-05-08 04:50 10.60192 -66.99666 218 ft 8 kts 194°
2026-05-08 04:50 10.60151 -66.99688 222 ft 5 kts 226°
2026-05-08 04:51 10.60141 -66.99741 225 ft 11 kts 265°
2026-05-08 04:51 10.60135 -66.99828 229 ft 12 kts 265°
2026-05-08 04:51 10.60124 -66.99956 232 ft 22 kts 266°
2026-05-08 04:51 10.60116 -67.00117 233 ft 23 kts 267°
2026-05-08 04:52 10.60105 -67.00261 235 ft 13 kts 246°
2026-05-08 04:52 10.60023 -67.00298 237 ft 12 kts 209°
2026-05-08 04:52 10.60002 -67.00383 235 ft 14 kts 267°
2026-05-08 04:52 10.59998 -67.00486 236 ft 16 kts 268°
2026-05-08 04:53 10.59983 -67.00588 238 ft 10 kts 213°
2026-05-08 04:53 10.59960 -67.00589 238 ft 4 kts 175°
2026-05-08 04:53 10.59920 -67.00584 238 ft 7 kts 174°
2026-05-08 04:53 10.59872 -67.00582 238 ft 0 kts 178°
2026-05-08 04:54 10.59861 -67.00582 238 ft 3 kts 179°
2026-05-08 04:54 10.59853 -67.00581 238 ft 0 kts 179°